iso_date,epoch_date,Year,Hour,Min,DOY,POS_DOY,Lat,Lon,BP,Ts,Ta,has_bp,has_ts,has_ta,BuoyID,Buoy_Type,Buoy_Owner,Logistics,Hemisphere
2018-04-11T13:00:28Z,1523451629,2018,13,0,101.542,101.542,-66.9908,-164.7322,1000.7,-1.16,-999.0,yes,yes,no,300234065250070,BD2GI,AOML,Palmer,South
2018-04-11T13:59:31Z,1523455171,2018,14,0,101.583,101.583,-66.992,-164.7258,1000.2,-1.12,-999.0,yes,yes,no,300234065250070,BD2GI,AOML,Palmer,South
2018-04-11T15:00:00Z,1523458800,2018,15,0,101.625,101.625,-66.994,-164.7198,999.9,-1.12,-999.0,yes,yes,no,300234065250070,BD2GI,AOML,Palmer,South
2018-04-11T16:00:28Z,1523462429,2018,16,0,101.667,101.667,-66.9956,-164.7134,1000.3,-1.12,-999.0,yes,yes,no,300234065250070,BD2GI,AOML,Palmer,South
2018-04-11T16:59:31Z,1523465971,2018,17,0,101.708,101.708,-66.9954,-164.7032,1000.6,-1.16,-999.0,yes,yes,no,300234065250070,BD2GI,AOML,Palmer,South
2018-04-11T18:00:00Z,1523469600,2018,18,0,101.75,101.75,-66.9938,-164.6944,1002.0,-1.16,-999.0,yes,yes,no,300234065250070,BD2GI,AOML,Palmer,South
2018-04-11T19:00:28Z,1523473229,2018,19,0,101.792,101.792,-66.9928,-164.69,1003.5,-1.12,-999.0,yes,yes,no,300234065250070,BD2GI,AOML,Palmer,South
2018-04-11T19:59:31Z,1523476771,2018,20,0,101.833,101.833,-66.9894,-164.6864,1004.8,-1.16,-999.0,yes,yes,no,300234065250070,BD2GI,AOML,Palmer,South
2018-04-11T21:00:00Z,1523480400,2018,21,0,101.875,101.875,-66.9868,-164.6866,1006.2,-1.16,-999.0,yes,yes,no,300234065250070,BD2GI,AOML,Palmer,South
2018-04-11T22:00:28Z,1523484029,2018,22,0,101.917,101.917,-66.9844,-164.6894,1007.2,-1.16,-999.0,yes,yes,no,300234065250070,BD2GI,AOML,Palmer,South
2018-04-11T22:59:31Z,1523487571,2018,23,0,101.958,101.958,-66.9824,-164.6962,1008.1,-1.16,-999.0,yes,yes,no,300234065250070,BD2GI,AOML,Palmer,South
2018-04-12T00:00:00Z,1523491200,2018,0,0,102.0,102.0,-66.9824,-164.7012,1008.7,-1.16,-999.0,yes,yes,no,300234065250070,BD2GI,AOML,Palmer,South
2018-04-12T01:00:28Z,1523494829,2018,1,0,102.042,102.042,-66.983,-164.7066,1009.4,-1.16,-999.0,yes,yes,no,300234065250070,BD2GI,AOML,Palmer,South
2018-04-12T01:59:31Z,1523498371,2018,2,0,102.083,102.083,-66.985,-164.7116,1009.9,-1.16,-999.0,yes,yes,no,300234065250070,BD2GI,AOML,Palmer,South
2018-04-12T03:00:00Z,1523502000,2018,3,0,102.125,102.125,-66.9884,-164.7112,1010.5,-1.16,-999.0,yes,yes,no,300234065250070,BD2GI,AOML,Palmer,South
2018-04-12T04:00:28Z,1523505629,2018,4,0,102.167,102.167,-66.9916,-164.7062,1010.9,-1.16,-999.0,yes,yes,no,300234065250070,BD2GI,AOML,Palmer,South
2018-04-12T04:59:31Z,1523509171,2018,5,0,102.208,102.208,-66.9938,-164.6994,1011.3,-1.16,-999.0,yes,yes,no,300234065250070,BD2GI,AOML,Palmer,South
2018-04-12T06:00:00Z,1523512800,2018,6,0,102.25,102.25,-66.9948,-164.6922,1011.2,-1.16,-999.0,yes,yes,no,300234065250070,BD2GI,AOML,Palmer,South
2018-04-12T07:00:28Z,1523516429,2018,7,0,102.292,102.292,-66.9946,-164.6848,1011.5,-1.12,-999.0,yes,yes,no,300234065250070,BD2GI,AOML,Palmer,South
2018-04-12T07:59:31Z,1523519971,2018,8,0,102.333,102.333,-66.994,-164.6786,1011.6,-1.16,-999.0,yes,yes,no,300234065250070,BD2GI,AOML,Palmer,South
2018-04-12T09:00:00Z,1523523600,2018,9,0,102.375,102.375,-66.9924,-164.6728,1011.9,-1.16,-999.0,yes,yes,no,300234065250070,BD2GI,AOML,Palmer,South
2018-04-12T10:00:28Z,1523527229,2018,10,0,102.417,102.417,-66.991,-164.6698,1011.9,-1.12,-999.0,yes,yes,no,300234065250070,BD2GI,AOML,Palmer,South
2018-04-12T10:59:31Z,1523530771,2018,11,0,102.458,102.458,-66.9888,-164.6702,1011.8,-1.12,-999.0,yes,yes,no,300234065250070,BD2GI,AOML,Palmer,South
2018-04-12T12:00:00Z,1523534400,2018,12,0,102.5,102.5,-66.9876,-164.671,1011.4,-1.16,-999.0,yes,yes,no,300234065250070,BD2GI,AOML,Palmer,South
2018-04-12T13:00:28Z,1523538029,2018,13,0,102.542,102.542,-66.9876,-164.6756,1011.1,-1.16,-999.0,yes,yes,no,300234065250070,BD2GI,AOML,Palmer,South
2018-04-12T13:59:31Z,1523541571,2018,14,0,102.583,102.583,-66.989,-164.6814,1010.6,-1.16,-999.0,yes,yes,no,300234065250070,BD2GI,AOML,Palmer,South
2018-04-12T15:00:00Z,1523545200,2018,15,0,102.625,102.625,-66.9916,-164.6832,1010.1,-1.16,-999.0,yes,yes,no,300234065250070,BD2GI,AOML,Palmer,South
2018-04-12T16:00:28Z,1523548829,2018,16,0,102.667,102.667,-66.9954,-164.682,1010.0,-1.16,-999.0,yes,yes,no,300234065250070,BD2GI,AOML,Palmer,South
2018-04-12T16:59:31Z,1523552371,2018,17,0,102.708,102.708,-66.9994,-164.6762,1009.2,-1.16,-999.0,yes,yes,no,300234065250070,BD2GI,AOML,Palmer,South
2018-04-12T18:00:00Z,1523556000,2018,18,0,102.75,102.75,-67.0028,-164.6672,1008.4,-1.16,-999.0,yes,yes,no,300234065250070,BD2GI,AOML,Palmer,South
2018-04-12T19:00:28Z,1523559629,2018,19,0,102.792,102.792,-67.0024,-164.6572,1007.8,-1.16,-999.0,yes,yes,no,300234065250070,BD2GI,AOML,Palmer,South
2018-04-12T19:59:31Z,1523563171,2018,20,0,102.833,102.833,-67.0016,-164.6482,1007.1,-1.16,-999.0,yes,yes,no,300234065250070,BD2GI,AOML,Palmer,South
2018-04-12T21:00:00Z,1523566800,2018,21,0,102.875,102.875,-66.9994,-164.6438,1005.8,-1.19,-999.0,yes,yes,no,300234065250070,BD2GI,AOML,Palmer,South
2018-04-12T22:00:28Z,1523570429,2018,22,0,102.917,102.917,-66.998,-164.6424,1004.7,-1.16,-999.0,yes,yes,no,300234065250070,BD2GI,AOML,Palmer,South
2018-04-12T22:59:31Z,1523573971,2018,23,0,102.958,102.958,-66.9972,-164.6432,1004.0,-1.16,-999.0,yes,yes,no,300234065250070,BD2GI,AOML,Palmer,South
2018-04-13T00:00:00Z,1523577600,2018,0,0,103.0,103.0,-66.997,-164.6442,1002.7,-1.16,-999.0,yes,yes,no,300234065250070,BD2GI,AOML,Palmer,South
2018-04-13T01:00:28Z,1523581229,2018,1,0,103.042,103.042,-66.997,-164.6446,1001.1,-1.19,-999.0,yes,yes,no,300234065250070,BD2GI,AOML,Palmer,South
2018-04-13T01:59:31Z,1523584771,2018,2,0,103.083,103.083,-66.997,-164.6448,999.6,-1.16,-999.0,yes,yes,no,300234065250070,BD2GI,AOML,Palmer,South
2018-04-13T03:00:00Z,1523588400,2018,3,0,103.125,103.125,-66.9982,-164.6466,997.9,-1.16,-999.0,yes,yes,no,300234065250070,BD2GI,AOML,Palmer,South
2018-04-13T04:00:28Z,1523592029,2018,4,0,103.167,103.167,-66.9998,-164.6464,996.4,-1.16,-999.0,yes,yes,no,300234065250070,BD2GI,AOML,Palmer,South
2018-04-13T04:59:31Z,1523595571,2018,5,0,103.208,103.208,-67.0006,-164.6448,995.2,-1.16,-999.0,yes,yes,no,300234065250070,BD2GI,AOML,Palmer,South
2018-04-13T06:00:00Z,1523599200,2018,6,0,103.25,103.25,-67.0022,-164.6424,994.0,-1.16,-999.0,yes,yes,no,300234065250070,BD2GI,AOML,Palmer,South
2018-04-13T07:00:28Z,1523602829,2018,7,0,103.292,103.292,-67.0026,-164.6384,992.5,-1.19,-999.0,yes,yes,no,300234065250070,BD2GI,AOML,Palmer,South
2018-04-13T07:59:31Z,1523606371,2018,8,0,103.333,103.333,-67.0016,-164.633,991.1,-1.19,-999.0,yes,yes,no,300234065250070,BD2GI,AOML,Palmer,South
2018-04-13T09:00:00Z,1523610000,2018,9,0,103.375,103.375,-67.0002,-164.629,990.4,-1.19,-999.0,yes,yes,no,300234065250070,BD2GI,AOML,Palmer,South
2018-04-13T10:00:28Z,1523613629,2018,10,0,103.417,103.417,-66.9982,-164.6268,989.4,-1.19,-999.0,yes,yes,no,300234065250070,BD2GI,AOML,Palmer,South
2018-04-13T10:59:31Z,1523617171,2018,11,0,103.458,103.458,-66.9964,-164.626,989.3,-1.19,-999.0,yes,yes,no,300234065250070,BD2GI,AOML,Palmer,South
2018-04-13T12:00:00Z,1523620800,2018,12,0,103.5,103.5,-66.9936,-164.6286,985.6,-1.19,-999.0,yes,yes,no,300234065250070,BD2GI,AOML,Palmer,South
2018-04-13T13:00:28Z,1523624429,2018,13,0,103.542,103.542,-66.9918,-164.6326,985.6,-1.19,-999.0,yes,yes,no,300234065250070,BD2GI,AOML,Palmer,South
2018-04-13T13:59:31Z,1523627971,2018,14,0,103.583,103.583,-66.991,-164.6362,983.1,-1.19,-999.0,yes,yes,no,300234065250070,BD2GI,AOML,Palmer,South
2018-04-13T15:00:00Z,1523631600,2018,15,0,103.625,103.625,-66.9906,-164.6392,983.0,-1.19,-999.0,yes,yes,no,300234065250070,BD2GI,AOML,Palmer,South
2018-04-13T16:00:28Z,1523635229,2018,16,0,103.667,103.667,-66.9904,-164.6448,982.5,-1.19,-999.0,yes,yes,no,300234065250070,BD2GI,AOML,Palmer,South
2018-04-13T16:59:31Z,1523638771,2018,17,0,103.708,103.708,-66.991,-164.6462,981.5,-1.19,-999.0,yes,yes,no,300234065250070,BD2GI,AOML,Palmer,South
2018-04-13T18:00:00Z,1523642400,2018,18,0,103.75,103.75,-66.9922,-164.6448,981.8,-1.19,-999.0,yes,yes,no,300234065250070,BD2GI,AOML,Palmer,South
2018-04-13T19:00:28Z,1523646029,2018,19,0,103.792,103.792,-66.9928,-164.6418,981.3,-1.19,-999.0,yes,yes,no,300234065250070,BD2GI,AOML,Palmer,South
2018-04-13T19:59:31Z,1523649571,2018,20,0,103.833,103.833,-66.9932,-164.638,982.5,-1.19,-999.0,yes,yes,no,300234065250070,BD2GI,AOML,Palmer,South
2018-04-13T21:00:00Z,1523653200,2018,21,0,103.875,103.875,-66.9926,-164.6324,975.5,-1.19,-999.0,yes,yes,no,300234065250070,BD2GI,AOML,Palmer,South
2018-04-13T22:00:28Z,1523656829,2018,22,0,103.917,103.917,-66.9906,-164.6268,973.6,-1.19,-999.0,yes,yes,no,300234065250070,BD2GI,AOML,Palmer,South
2018-04-13T22:59:31Z,1523660371,2018,23,0,103.958,103.958,-66.9886,-164.623,972.5,-1.19,-999.0,yes,yes,no,300234065250070,BD2GI,AOML,Palmer,South
2018-04-14T00:00:00Z,1523664000,2018,0,0,104.0,104.0,-66.986,-164.6196,971.7,-1.19,-999.0,yes,yes,no,300234065250070,BD2GI,AOML,Palmer,South
2018-04-14T01:00:28Z,1523667629,2018,1,0,104.042,104.042,-66.9824,-164.6174,972.2,-1.19,-999.0,yes,yes,no,300234065250070,BD2GI,AOML,Palmer,South
2018-04-14T01:59:31Z,1523671171,2018,2,0,104.083,104.083,-66.9782,-164.6148,972.7,-1.19,-999.0,yes,yes,no,300234065250070,BD2GI,AOML,Palmer,South
2018-04-14T03:00:00Z,1523674800,2018,3,0,104.125,104.125,-66.9736,-164.6136,973.8,-1.19,-999.0,yes,yes,no,300234065250070,BD2GI,AOML,Palmer,South
2018-04-14T04:00:28Z,1523678429,2018,4,0,104.167,104.167,-66.9736,-164.6136,975.6,-1.19,-999.0,yes,yes,no,300234065250070,BD2GI,AOML,Palmer,South
2018-04-14T04:59:31Z,1523681971,2018,5,0,104.208,104.208,-66.9626,-164.6136,977.6,-1.19,-999.0,yes,yes,no,300234065250070,BD2GI,AOML,Palmer,South
2018-04-14T06:00:00Z,1523685600,2018,6,0,104.25,104.25,-66.959,-164.6152,979.2,-1.19,-999.0,yes,yes,no,300234065250070,BD2GI,AOML,Palmer,South
2018-04-14T07:00:28Z,1523689229,2018,7,0,104.292,104.292,-66.9546,-164.619,981.1,-1.23,-999.0,yes,yes,no,300234065250070,BD2GI,AOML,Palmer,South
2018-04-14T07:59:31Z,1523692771,2018,8,0,104.333,104.333,-66.9546,-164.619,982.2,-1.19,-999.0,yes,yes,no,300234065250070,BD2GI,AOML,Palmer,South
2018-04-14T09:00:00Z,1523696400,2018,9,0,104.375,104.375,-66.9546,-164.619,983.4,-1.19,-999.0,yes,yes,no,300234065250070,BD2GI,AOML,Palmer,South
2018-04-14T10:00:28Z,1523700029,2018,10,0,104.417,104.417,-66.9546,-164.619,984.2,-1.19,-999.0,yes,yes,no,300234065250070,BD2GI,AOML,Palmer,South
2018-04-14T10:59:31Z,1523703571,2018,11,0,104.458,104.458,-66.9486,-164.6308,985.5,-1.16,-999.0,yes,yes,no,300234065250070,BD2GI,AOML,Palmer,South
2018-04-14T12:00:00Z,1523707200,2018,12,0,104.5,104.5,-66.9486,-164.6322,986.6,-1.19,-999.0,yes,yes,no,300234065250070,BD2GI,AOML,Palmer,South
2018-04-14T13:00:28Z,1523710829,2018,13,0,104.542,104.542,-66.9482,-164.6296,987.2,-1.19,-999.0,yes,yes,no,300234065250070,BD2GI,AOML,Palmer,South
2018-04-14T13:59:31Z,1523714371,2018,14,0,104.583,104.583,-66.9482,-164.6296,988.1,-1.19,-999.0,yes,yes,no,300234065250070,BD2GI,AOML,Palmer,South
2018-04-14T15:00:00Z,1523718000,2018,15,0,104.625,104.625,-66.9434,-164.6216,988.3,-1.19,-999.0,yes,yes,no,300234065250070,BD2GI,AOML,Palmer,South
2018-04-14T16:00:28Z,1523721629,2018,16,0,104.667,104.667,-66.9404,-164.6178,989.0,-1.19,-999.0,yes,yes,no,300234065250070,BD2GI,AOML,Palmer,South
2018-04-14T16:59:31Z,1523725171,2018,17,0,104.708,104.708,-66.9364,-164.6138,989.6,-1.19,-999.0,yes,yes,no,300234065250070,BD2GI,AOML,Palmer,South
2018-04-14T18:00:00Z,1523728800,2018,18,0,104.75,104.75,-66.9326,-164.6136,990.2,-1.23,-999.0,yes,yes,no,300234065250070,BD2GI,AOML,Palmer,South
2018-04-14T19:00:28Z,1523732429,2018,19,0,104.792,104.792,-66.9294,-164.6154,990.6,-1.23,-999.0,yes,yes,no,300234065250070,BD2GI,AOML,Palmer,South
2018-04-14T19:59:31Z,1523735971,2018,20,0,104.833,104.833,-66.9264,-164.62,992.3,-1.23,-999.0,yes,yes,no,300234065250070,BD2GI,AOML,Palmer,South
2018-04-14T21:00:00Z,1523739600,2018,21,0,104.875,104.875,-66.9242,-164.6224,993.2,-1.23,-999.0,yes,yes,no,300234065250070,BD2GI,AOML,Palmer,South
2018-04-14T22:00:28Z,1523743229,2018,22,0,104.917,104.917,-66.9224,-164.628,993.8,-1.23,-999.0,yes,yes,no,300234065250070,BD2GI,AOML,Palmer,South
2018-04-14T22:59:31Z,1523746771,2018,23,0,104.958,104.958,-66.9218,-164.6328,994.8,-1.26,-999.0,yes,yes,no,300234065250070,BD2GI,AOML,Palmer,South
2018-04-15T00:00:00Z,1523750400,2018,0,0,105.0,105.0,-66.922,-164.6348,995.5,-1.23,-999.0,yes,yes,no,300234065250070,BD2GI,AOML,Palmer,South
2018-04-15T01:00:28Z,1523754029,2018,1,0,105.042,105.042,-66.9224,-164.6336,995.6,-1.26,-999.0,yes,yes,no,300234065250070,BD2GI,AOML,Palmer,South
2018-04-15T01:59:31Z,1523757571,2018,2,0,105.083,105.083,-66.9214,-164.6316,995.4,-1.26,-999.0,yes,yes,no,300234065250070,BD2GI,AOML,Palmer,South
2018-04-15T03:00:00Z,1523761200,2018,3,0,105.125,105.125,-66.9202,-164.6256,995.7,-1.26,-999.0,yes,yes,no,300234065250070,BD2GI,AOML,Palmer,South
2018-04-15T04:00:28Z,1523764829,2018,4,0,105.167,105.167,-66.9184,-164.6186,996.8,-1.26,-999.0,yes,yes,no,300234065250070,BD2GI,AOML,Palmer,South
2018-04-15T04:59:31Z,1523768371,2018,5,0,105.208,105.208,-66.915,-164.6122,997.6,-1.26,-999.0,yes,yes,no,300234065250070,BD2GI,AOML,Palmer,South
2018-04-15T06:00:00Z,1523772000,2018,6,0,105.25,105.25,-66.9118,-164.608,998.4,-1.26,-999.0,yes,yes,no,300234065250070,BD2GI,AOML,Palmer,South
2018-04-15T07:00:28Z,1523775629,2018,7,0,105.292,105.292,-66.9082,-164.6094,998.3,-1.26,-999.0,yes,yes,no,300234065250070,BD2GI,AOML,Palmer,South
2018-04-15T07:59:31Z,1523779171,2018,8,0,105.333,105.333,-66.9046,-164.6152,998.3,-1.29,-999.0,yes,yes,no,300234065250070,BD2GI,AOML,Palmer,South
2018-04-15T09:00:00Z,1523782800,2018,9,0,105.375,105.375,-66.9032,-164.6208,998.2,-1.29,-999.0,yes,yes,no,300234065250070,BD2GI,AOML,Palmer,South
2018-04-15T10:00:28Z,1523786429,2018,10,0,105.417,105.417,-66.9028,-164.6292,998.0,-1.29,-999.0,yes,yes,no,300234065250070,BD2GI,AOML,Palmer,South
2018-04-15T10:59:31Z,1523789971,2018,11,0,105.458,105.458,-66.9044,-164.6354,997.7,-1.26,-999.0,yes,yes,no,300234065250070,BD2GI,AOML,Palmer,South
2018-04-15T12:00:00Z,1523793600,2018,12,0,105.5,105.5,-66.9054,-164.6388,997.1,-1.29,-999.0,yes,yes,no,300234065250070,BD2GI,AOML,Palmer,South
2018-04-15T13:00:28Z,1523797229,2018,13,0,105.542,105.542,-66.9064,-164.6418,996.6,-1.29,-999.0,yes,yes,no,300234065250070,BD2GI,AOML,Palmer,South
2018-04-15T13:59:31Z,1523800771,2018,14,0,105.583,105.583,-66.9088,-164.6434,996.0,-1.29,-999.0,yes,yes,no,300234065250070,BD2GI,AOML,Palmer,South
2018-04-15T15:00:00Z,1523804400,2018,15,0,105.625,105.625,-66.9102,-164.641,995.9,-1.36,-999.0,yes,yes,no,300234065250070,BD2GI,AOML,Palmer,South
2018-04-15T16:00:28Z,1523808029,2018,16,0,105.667,105.667,-66.9116,-164.6376,997.5,-1.4,-999.0,yes,yes,no,300234065250070,BD2GI,AOML,Palmer,South
2018-04-15T16:59:31Z,1523811571,2018,17,0,105.708,105.708,-66.912,-164.6324,995.5,-1.36,-999.0,yes,yes,no,300234065250070,BD2GI,AOML,Palmer,South
2018-04-15T18:00:00Z,1523815200,2018,18,0,105.75,105.75,-66.9116,-164.6286,995.7,-1.36,-999.0,yes,yes,no,300234065250070,BD2GI,AOML,Palmer,South
2018-04-15T19:00:28Z,1523818829,2018,19,0,105.792,105.792,-66.9094,-164.6258,995.4,-1.33,-999.0,yes,yes,no,300234065250070,BD2GI,AOML,Palmer,South
2018-04-15T19:59:31Z,1523822371,2018,20,0,105.833,105.833,-66.9076,-164.6246,996.2,-1.29,-999.0,yes,yes,no,300234065250070,BD2GI,AOML,Palmer,South
2018-04-15T21:00:00Z,1523826000,2018,21,0,105.875,105.875,-66.9052,-164.626,996.7,-1.29,-999.0,yes,yes,no,300234065250070,BD2GI,AOML,Palmer,South
2018-04-15T22:00:28Z,1523829629,2018,22,0,105.917,105.917,-66.9028,-164.6274,997.0,-1.26,-999.0,yes,yes,no,300234065250070,BD2GI,AOML,Palmer,South
2018-04-15T22:59:31Z,1523833171,2018,23,0,105.958,105.958,-66.9002,-164.6322,997.9,-1.26,-999.0,yes,yes,no,300234065250070,BD2GI,AOML,Palmer,South
2018-04-16T00:00:00Z,1523836800,2018,0,0,106.0,106.0,-66.8986,-164.6384,998.7,-1.26,-999.0,yes,yes,no,300234065250070,BD2GI,AOML,Palmer,South
2018-04-16T01:00:28Z,1523840429,2018,1,0,106.042,106.042,-66.8978,-164.6426,999.4,-1.26,-999.0,yes,yes,no,300234065250070,BD2GI,AOML,Palmer,South
2018-04-16T01:59:31Z,1523843971,2018,2,0,106.083,106.083,-66.898,-164.6474,1000.0,-1.26,-999.0,yes,yes,no,300234065250070,BD2GI,AOML,Palmer,South
2018-04-16T03:00:00Z,1523847600,2018,3,0,106.125,106.125,-66.8976,-164.6488,1000.7,-1.26,-999.0,yes,yes,no,300234065250070,BD2GI,AOML,Palmer,South
2018-04-16T04:00:28Z,1523851229,2018,4,0,106.167,106.167,-66.8964,-164.6488,1001.3,-1.26,-999.0,yes,yes,no,300234065250070,BD2GI,AOML,Palmer,South
2018-04-16T04:59:31Z,1523854771,2018,5,0,106.208,106.208,-66.8954,-164.6466,1002.2,-1.29,-999.0,yes,yes,no,300234065250070,BD2GI,AOML,Palmer,South
2018-04-16T06:00:00Z,1523858400,2018,6,0,106.25,106.25,-66.8942,-164.6452,1002.6,-1.33,-999.0,yes,yes,no,300234065250070,BD2GI,AOML,Palmer,South
2018-04-16T07:00:28Z,1523862029,2018,7,0,106.292,106.292,-66.8924,-164.6436,1003.3,-1.29,-999.0,yes,yes,no,300234065250070,BD2GI,AOML,Palmer,South
2018-04-16T07:59:31Z,1523865571,2018,8,0,106.333,106.333,-66.8908,-164.6432,1003.8,-1.26,-999.0,yes,yes,no,300234065250070,BD2GI,AOML,Palmer,South
2018-04-16T09:00:00Z,1523869200,2018,9,0,106.375,106.375,-66.8884,-164.6422,1004.3,-1.26,-999.0,yes,yes,no,300234065250070,BD2GI,AOML,Palmer,South
2018-04-16T10:00:28Z,1523872829,2018,10,0,106.417,106.417,-66.886,-164.643,1004.5,-1.26,-999.0,yes,yes,no,300234065250070,BD2GI,AOML,Palmer,South
2018-04-16T10:59:31Z,1523876371,2018,11,0,106.458,106.458,-66.884,-164.6454,1004.6,-1.26,-999.0,yes,yes,no,300234065250070,BD2GI,AOML,Palmer,South
2018-04-16T12:00:00Z,1523880000,2018,12,0,106.5,106.5,-66.8822,-164.6466,1005.2,-1.26,-999.0,yes,yes,no,300234065250070,BD2GI,AOML,Palmer,South
2018-04-16T13:00:28Z,1523883629,2018,13,0,106.542,106.542,-66.88,-164.6492,1005.7,-1.26,-999.0,yes,yes,no,300234065250070,BD2GI,AOML,Palmer,South
2018-04-16T13:59:31Z,1523887171,2018,14,0,106.583,106.583,-66.8792,-164.6514,1006.4,-1.26,-999.0,yes,yes,no,300234065250070,BD2GI,AOML,Palmer,South
2018-04-16T15:00:00Z,1523890800,2018,15,0,106.625,106.625,-66.8782,-164.651,1006.7,-1.26,-999.0,yes,yes,no,300234065250070,BD2GI,AOML,Palmer,South
2018-04-16T16:00:28Z,1523894429,2018,16,0,106.667,106.667,-66.8772,-164.6494,1007.4,-1.26,-999.0,yes,yes,no,300234065250070,BD2GI,AOML,Palmer,South
2018-04-16T16:59:31Z,1523897971,2018,17,0,106.708,106.708,-66.8762,-164.647,1008.2,-1.26,-999.0,yes,yes,no,300234065250070,BD2GI,AOML,Palmer,South
2018-04-16T18:00:00Z,1523901600,2018,18,0,106.75,106.75,-66.8756,-164.6394,1008.6,-1.26,-999.0,yes,yes,no,300234065250070,BD2GI,AOML,Palmer,South
2018-04-16T19:00:28Z,1523905229,2018,19,0,106.792,106.792,-66.874,-164.631,1009.2,-1.26,-999.0,yes,yes,no,300234065250070,BD2GI,AOML,Palmer,South
2018-04-16T19:59:31Z,1523908771,2018,20,0,106.833,106.833,-66.8714,-164.6244,1009.6,-1.26,-999.0,yes,yes,no,300234065250070,BD2GI,AOML,Palmer,South
2018-04-16T21:00:00Z,1523912400,2018,21,0,106.875,106.875,-66.8692,-164.6198,1010.5,-1.26,-999.0,yes,yes,no,300234065250070,BD2GI,AOML,Palmer,South
2018-04-16T22:00:28Z,1523916029,2018,22,0,106.917,106.917,-66.866,-164.616,1011.7,-1.26,-999.0,yes,yes,no,300234065250070,BD2GI,AOML,Palmer,South
2018-04-16T22:59:31Z,1523919571,2018,23,0,106.958,106.958,-66.863,-164.6164,1012.0,-1.26,-999.0,yes,yes,no,300234065250070,BD2GI,AOML,Palmer,South
2018-04-17T00:00:00Z,1523923200,2018,0,0,107.0,107.0,-66.8608,-164.618,1012.6,-1.26,-999.0,yes,yes,no,300234065250070,BD2GI,AOML,Palmer,South
2018-04-17T01:00:28Z,1523926829,2018,1,0,107.042,107.042,-66.8598,-164.622,1013.8,-1.26,-999.0,yes,yes,no,300234065250070,BD2GI,AOML,Palmer,South
2018-04-17T01:59:31Z,1523930371,2018,2,0,107.083,107.083,-66.8586,-164.6256,1014.4,-1.26,-999.0,yes,yes,no,300234065250070,BD2GI,AOML,Palmer,South
2018-04-17T03:00:00Z,1523934000,2018,3,0,107.125,107.125,-66.8588,-164.627,1014.3,-1.26,-999.0,yes,yes,no,300234065250070,BD2GI,AOML,Palmer,South
2018-04-17T04:00:28Z,1523937629,2018,4,0,107.167,107.167,-66.8598,-164.6272,1014.2,-1.26,-999.0,yes,yes,no,300234065250070,BD2GI,AOML,Palmer,South
2018-04-17T04:59:31Z,1523941171,2018,5,0,107.208,107.208,-66.8612,-164.6256,1014.2,-1.26,-999.0,yes,yes,no,300234065250070,BD2GI,AOML,Palmer,South
2018-04-17T06:00:00Z,1523944800,2018,6,0,107.25,107.25,-66.8636,-164.6222,1013.9,-1.26,-999.0,yes,yes,no,300234065250070,BD2GI,AOML,Palmer,South
2018-04-17T07:00:28Z,1523948429,2018,7,0,107.292,107.292,-66.865,-164.6142,1014.0,-1.26,-999.0,yes,yes,no,300234065250070,BD2GI,AOML,Palmer,South
2018-04-17T07:59:31Z,1523951971,2018,8,0,107.333,107.333,-66.8662,-164.6052,1013.9,-1.26,-999.0,yes,yes,no,300234065250070,BD2GI,AOML,Palmer,South
2018-04-17T09:00:00Z,1523955600,2018,9,0,107.375,107.375,-66.8634,-164.5964,1014.1,-1.26,-999.0,yes,yes,no,300234065250070,BD2GI,AOML,Palmer,South
2018-04-17T10:00:28Z,1523959229,2018,10,0,107.417,107.417,-66.8606,-164.5862,1014.2,-1.26,-999.0,yes,yes,no,300234065250070,BD2GI,AOML,Palmer,South
2018-04-17T10:59:31Z,1523962771,2018,11,0,107.458,107.458,-66.857,-164.5808,1014.4,-1.26,-999.0,yes,yes,no,300234065250070,BD2GI,AOML,Palmer,South
2018-04-17T12:00:00Z,1523966400,2018,12,0,107.5,107.5,-66.8538,-164.5768,1014.6,-1.23,-999.0,yes,yes,no,300234065250070,BD2GI,AOML,Palmer,South
2018-04-17T13:00:28Z,1523970029,2018,13,0,107.542,107.542,-66.851,-164.5772,1014.1,-1.23,-999.0,yes,yes,no,300234065250070,BD2GI,AOML,Palmer,South
2018-04-17T13:59:31Z,1523973571,2018,14,0,107.583,107.583,-66.8492,-164.579,1013.8,-1.23,-999.0,yes,yes,no,300234065250070,BD2GI,AOML,Palmer,South
2018-04-17T15:00:00Z,1523977200,2018,15,0,107.625,107.625,-66.8494,-164.5808,1013.2,-1.23,-999.0,yes,yes,no,300234065250070,BD2GI,AOML,Palmer,South
2018-04-17T16:00:28Z,1523980829,2018,16,0,107.667,107.667,-66.8504,-164.58,1012.9,-1.19,-999.0,yes,yes,no,300234065250070,BD2GI,AOML,Palmer,South
2018-04-17T16:59:31Z,1523984371,2018,17,0,107.708,107.708,-66.8504,-164.58,1012.6,-1.19,-999.0,yes,yes,no,300234065250070,BD2GI,AOML,Palmer,South
2018-04-17T18:00:00Z,1523988000,2018,18,0,107.75,107.75,-66.8542,-164.5738,1012.8,-1.19,-999.0,yes,yes,no,300234065250070,BD2GI,AOML,Palmer,South
2018-04-17T19:00:28Z,1523991629,2018,19,0,107.792,107.792,-66.8566,-164.5696,1012.9,-1.19,-999.0,yes,yes,no,300234065250070,BD2GI,AOML,Palmer,South
2018-04-17T19:59:31Z,1523995171,2018,20,0,107.833,107.833,-66.8588,-164.5624,1013.1,-1.19,-999.0,yes,yes,no,300234065250070,BD2GI,AOML,Palmer,South
2018-04-17T21:00:00Z,1523998800,2018,21,0,107.875,107.875,-66.8596,-164.5538,1012.8,-1.19,-999.0,yes,yes,no,300234065250070,BD2GI,AOML,Palmer,South
2018-04-17T22:00:28Z,1524002429,2018,22,0,107.917,107.917,-66.8598,-164.5488,1012.5,-1.19,-999.0,yes,yes,no,300234065250070,BD2GI,AOML,Palmer,South
2018-04-17T22:59:31Z,1524005971,2018,23,0,107.958,107.958,-66.8588,-164.5422,1012.1,-1.19,-999.0,yes,yes,no,300234065250070,BD2GI,AOML,Palmer,South
2018-04-18T00:00:00Z,1524009600,2018,0,0,108.0,108.0,-66.858,-164.5374,1011.8,-1.19,-999.0,yes,yes,no,300234065250070,BD2GI,AOML,Palmer,South
2018-04-18T01:00:28Z,1524013229,2018,1,0,108.042,108.042,-66.8564,-164.5354,1011.6,-1.19,-999.0,yes,yes,no,300234065250070,BD2GI,AOML,Palmer,South
2018-04-18T01:59:31Z,1524016771,2018,2,0,108.083,108.083,-66.855,-164.5338,1011.4,-1.19,-999.0,yes,yes,no,300234065250070,BD2GI,AOML,Palmer,South
2018-04-18T03:00:00Z,1524020400,2018,3,0,108.125,108.125,-66.8548,-164.5348,1010.9,-1.19,-999.0,yes,yes,no,300234065250070,BD2GI,AOML,Palmer,South
2018-04-18T04:00:28Z,1524024029,2018,4,0,108.167,108.167,-66.8546,-164.538,1010.3,-1.19,-999.0,yes,yes,no,300234065250070,BD2GI,AOML,Palmer,South
2018-04-18T04:59:31Z,1524027571,2018,5,0,108.208,108.208,-66.8544,-164.5388,1009.7,-1.19,-999.0,yes,yes,no,300234065250070,BD2GI,AOML,Palmer,South
2018-04-18T06:00:00Z,1524031200,2018,6,0,108.25,108.25,-66.856,-164.5404,1009.1,-1.19,-999.0,yes,yes,no,300234065250070,BD2GI,AOML,Palmer,South
2018-04-18T07:00:28Z,1524034829,2018,7,0,108.292,108.292,-66.8582,-164.5398,1008.8,-1.19,-999.0,yes,yes,no,300234065250070,BD2GI,AOML,Palmer,South